contact:dominique.lefevre@mio.osupytheas.fr, maurice.libes@osupytheas.fr, didier.mallarino@osupytheas.fr
Project:EMSO http://www.emso-fr.org/EMSO-France
Depth: 2436.0 m
Title:EMSO Ligure Ouest : Data MII capteur AQUADOPP
Date,Latitude,Longitude,X_East,Y_North,Z_Up,Amplitude_X,Amplitude_Y,Amplitude_Z,Batterie,SoundSpeed,Heading,Pitch,Roll,Pressure,TIS,Speed,Direction
, degrees North, degrees East, m.s-1, m.s-1,m.s-1, 1, 1, 1, Volt, m.s-1, degree, degree, degree, dbar, degree_C, m.s-1, degree
2019-06-29T00:04:03,42.805,6.029,-0.034,0.0,-0.015,105.0,109.0,103.0,13.4,1505.3,327.7,-0.8,1.9,2470.054,13.32,0.034,270.0
2019-06-29T00:07:04,42.805,6.029,-0.028,0.011,-0.011,106.0,111.0,102.0,13.4,1505.3,323.2,-0.7,1.8,2469.994,13.32,0.03,291.4
2019-06-29T00:10:05,42.805,6.029,-0.007,0.008,-0.007,107.0,110.0,101.0,13.4,1505.3,325.5,-0.7,1.9,2470.055,13.33,0.01,318.8
2019-06-29T00:13:06,42.805,6.029,-0.032,0.008,-0.043,104.0,110.0,101.0,13.4,1505.3,326.5,-0.7,1.8,2470.052,13.33,0.032,284.0
2019-06-29T00:16:07,42.805,6.029,-0.025,0.019,-0.008,107.0,109.0,100.0,13.3,1505.3,326.5,-0.7,1.8,2470.037,13.33,0.031,307.2
2019-06-29T00:19:08,42.805,6.029,0.003,0.003,-0.007,103.0,110.0,102.0,13.3,1505.3,325.5,-0.7,1.8,2470.036,13.33,0.004,45.0
2019-06-29T00:22:09,42.805,6.029,-0.044,0.007,-0.032,107.0,109.0,100.0,13.4,1505.3,325.6,-0.7,1.9,2470.036,13.33,0.044,279.0
2019-06-29T00:25:10,42.805,6.029,-0.019,0.006,-0.012,104.0,109.0,101.0,13.3,1505.3,324.9,-0.7,1.9,2470.066,13.33,0.019,287.5
2019-06-29T00:28:11,42.805,6.029,-0.028,0.019,0.0,106.0,110.0,100.0,13.4,1505.3,327.3,-0.7,1.9,2470.063,13.33,0.033,304.2
2019-06-29T00:31:12,42.805,6.029,-0.019,0.0,-0.008,105.0,108.0,101.0,13.4,1505.3,326.0,-0.7,1.9,2470.034,13.33,0.019,270.0
2019-06-29T00:34:13,42.805,6.029,-0.024,-0.002,-0.019,107.0,110.0,102.0,13.3,1505.3,326.1,-0.7,1.8,2470.047,13.33,0.024,265.2
2019-06-29T00:37:14,42.805,6.029,-0.036,0.011,-0.028,103.0,109.0,101.0,13.4,1505.3,325.3,-0.7,1.8,2470.035,13.33,0.037,287.0
2019-06-29T00:40:15,42.805,6.029,-0.026,0.007,-0.026,105.0,109.0,102.0,13.4,1505.3,326.3,-0.7,1.9,2470.09,13.33,0.026,285.1
2019-06-29T00:43:16,42.805,6.029,-0.024,-0.002,-0.007,105.0,109.0,102.0,13.4,1505.3,324.5,-0.7,1.8,2470.035,13.33,0.024,265.2
2019-06-29T00:46:17,42.805,6.029,-0.038,0.035,-0.023,104.0,107.0,100.0,13.4,1505.3,323.9,-0.8,1.8,2470.077,13.33,0.051,312.6
2019-06-29T00:49:18,42.805,6.029,-0.015,-0.005,-0.021,104.0,109.0,101.0,13.4,1505.3,323.2,-0.7,1.8,2470.073,13.33,0.015,251.6
2019-06-29T00:52:19,42.805,6.029,-0.055,0.008,-0.019,104.0,107.0,101.0,13.4,1505.3,327.8,-0.7,1.9,2470.041,13.33,0.055,278.3
2019-06-29T00:55:20,42.805,6.029,-0.024,0.007,-0.003,106.0,109.0,104.0,13.4,1505.3,323.6,-0.7,1.8,2470.064,13.33,0.025,286.3
2019-06-29T00:58:21,42.805,6.029,-0.027,0.014,-0.009,106.0,109.0,101.0,13.4,1505.3,325.6,-0.8,1.9,2470.074,13.33,0.03,297.4
2019-06-29T01:01:22,42.805,6.029,-0.029,0.0,0.004,106.0,109.0,100.0,13.4,1505.3,327.0,-0.7,1.8,2470.052,13.33,0.028,270.0
2019-06-29T01:04:23,42.805,6.029,-0.025,0.014,-0.016,105.0,111.0,102.0,13.4,1505.3,327.5,-0.7,1.8,2470.074,13.33,0.028,299.3
2019-06-29T01:07:24,42.805,6.029,-0.015,0.02,-0.013,105.0,110.0,102.0,13.4,1505.3,327.8,-0.7,1.8,2470.065,13.33,0.025,323.1
2019-06-29T01:10:25,42.805,6.029,-0.032,0.006,-0.028,104.0,111.0,101.0,13.4,1505.3,327.4,-0.7,1.9,2470.075,13.33,0.032,280.6
2019-06-29T01:13:26,42.805,6.029,-0.011,-0.003,-0.02,106.0,111.0,100.0,13.4,1505.3,328.2,-0.7,1.9,2470.052,13.33,0.011,254.7
2019-06-29T01:16:27,42.805,6.029,-0.012,0.012,-0.036,107.0,109.0,101.0,13.3,1505.3,327.8,-0.7,1.8,2470.049,13.33,0.016,315.0
2019-06-29T01:19:28,42.805,6.029,-0.009,0.025,-0.007,106.0,109.0,103.0,13.4,1505.3,327.8,-0.7,1.8,2470.038,13.33,0.026,340.2
2019-06-29T01:22:29,42.805,6.029,-0.037,-0.003,-0.02,105.0,109.0,103.0,13.4,1505.3,324.3,-0.7,1.9,2470.03,13.33,0.037,265.4
2019-06-29T01:25:30,42.805,6.029,-0.042,0.001,0.006,106.0,110.0,102.0,13.4,1505.3,325.9,-0.7,1.9,2470.07,13.33,0.042,271.4
2019-06-29T01:28:31,42.805,6.029,-0.014,0.001,-0.018,106.0,110.0,102.0,13.3,1505.3,325.3,-0.7,1.8,2470.062,13.33,0.014,274.1
2019-06-29T01:31:32,42.805,6.029,-0.05,-0.01,-0.036,105.0,109.0,101.0,13.4,1505.3,326.5,-0.8,1.8,2470.089,13.33,0.05,258.7
2019-06-29T01:34:33,42.805,6.029,-0.023,0.007,-0.029,105.0,109.0,103.0,13.4,1505.3,324.9,-0.7,1.8,2470.061,13.33,0.024,286.9
2019-06-29T01:37:34,42.805,6.029,-0.028,-0.017,-0.008,105.0,111.0,101.0,13.4,1505.3,324.6,-0.7,1.9,2470.086,13.33,0.032,238.7
2019-06-29T01:40:35,42.805,6.029,-0.033,0.011,-0.023,104.0,109.0,99.0,13.4,1505.3,324.3,-0.7,1.9,2470.076,13.33,0.034,288.4
2019-06-29T01:43:36,42.805,6.029,-0.011,0.018,-0.008,103.0,107.0,100.0,13.4,1505.3,325.0,-0.7,1.8,2470.105,13.33,0.021,328.6
2019-06-29T01:46:37,42.805,6.029,-0.017,0.006,-0.005,103.0,109.0,101.0,13.4,1505.3,326.1,-0.7,1.8,2470.06,13.33,0.018,289.4
2019-06-29T01:49:38,42.805,6.029,-0.016,0.017,-0.034,106.0,107.0,101.0,13.4,1505.3,324.4,-0.7,1.8,2470.047,13.33,0.023,316.7
2019-06-29T01:52:39,42.805,6.029,0.013,0.023,0.003,106.0,108.0,101.0,13.4,1505.3,327.6,-0.7,1.8,2470.07,13.33,0.026,29.5
2019-06-29T01:55:40,42.805,6.029,-0.024,0.013,-0.021,105.0,110.0,102.0,13.4,1505.3,328.0,-0.8,1.9,2470.076,13.33,0.027,298.4
2019-06-29T01:58:41,42.805,6.029,-0.018,0.017,0.018,104.0,109.0,102.0,13.3,1505.3,326.5,-0.7,1.9,2470.113,13.33,0.024,313.4
2019-06-29T02:01:42,42.805,6.029,-0.035,-0.004,-0.036,106.0,109.0,102.0,13.3,1505.3,325.9,-0.7,1.9,2470.07,13.33,0.035,263.5
2019-06-29T02:04:43,42.805,6.029,-0.009,0.004,-0.007,105.0,111.0,101.0,13.4,1505.3,328.2,-0.7,1.9,2470.088,13.33,0.009,294.0
2019-06-29T02:07:44,42.805,6.029,0.002,-0.006,-0.008,104.0,108.0,101.0,13.4,1505.3,328.0,-0.8,1.9,2470.096,13.33,0.006,161.6
2019-06-29T02:10:45,42.805,6.029,-0.011,0.008,-0.03,107.0,111.0,100.0,13.4,1505.3,326.5,-0.7,1.8,2470.099,13.33,0.013,306.0
2019-06-29T02:13:46,42.805,6.029,-0.032,0.004,-0.028,106.0,108.0,100.0,13.4,1505.3,327.1,-0.7,1.8,2470.068,13.33,0.032,277.1
2019-06-29T02:16:47,42.805,6.029,-0.021,0.012,-0.002,105.0,109.0,101.0,13.4,1505.3,325.0,-0.7,1.9,2470.087,13.33,0.024,299.7
2019-06-29T02:19:48,42.805,6.029,-0.034,0.014,-0.058,106.0,109.0,101.0,13.4,1505.3,325.1,-0.7,1.9,2470.093,13.33,0.036,292.4
2019-06-29T02:22:49,42.805,6.029,-0.026,0.01,0.03,105.0,109.0,100.0,13.3,1505.3,326.5,-0.7,1.8,2470.089,13.33,0.027,291.0
2019-06-29T02:25:50,42.805,6.029,-0.006,0.014,-0.005,105.0,108.0,102.0,13.4,1505.4,325.1,-0.7,1.8,2470.084,13.34,0.015,336.8
2019-06-29T02:28:51,42.805,6.029,-0.002,-0.007,-0.026,105.0,109.0,101.0,13.3,1505.3,324.9,-0.7,1.8,2470.081,13.33,0.007,195.9
2019-06-29T02:31:52,42.805,6.029,-0.015,0.035,-0.013,107.0,108.0,101.0,13.3,1505.3,326.4,-0.7,1.8,2470.06,13.33,0.038,336.8
2019-06-29T02:34:53,42.805,6.029,-0.021,-0.009,0.013,106.0,108.0,100.0,13.3,1505.3,327.4,-0.7,1.8,2470.076,13.33,0.022,246.8
2019-06-29T02:37:54,42.805,6.029,-0.022,0.01,-0.058,107.0,108.0,101.0,13.4,1505.3,324.5,-0.7,1.8,2470.111,13.33,0.024,294.4
2019-06-29T02:40:55,42.805,6.029,-0.019,0.004,0.004,105.0,110.0,100.0,13.4,1505.3,323.3,-0.7,1.9,2470.14,13.33,0.019,281.9
2019-06-29T02:43:56,42.805,6.029,-0.022,0.007,-0.008,106.0,110.0,102.0,13.3,1505.3,325.8,-0.7,1.8,2470.123,13.33,0.023,287.6
2019-06-29T02:46:57,42.805,6.029,-0.014,0.001,-0.02,105.0,111.0,100.0,13.3,1505.3,326.0,-0.7,1.8,2470.123,13.33,0.014,274.1
2019-06-29T02:49:58,42.805,6.029,-0.011,-0.001,0.004,106.0,111.0,103.0,13.3,1505.4,325.7,-0.7,1.9,2470.099,13.34,0.011,264.8
2019-06-29T02:52:59,42.805,6.029,-0.032,-0.008,-0.015,104.0,109.0,100.0,13.4,1505.4,324.6,-0.7,1.9,2470.111,13.34,0.032,256.0
2019-06-29T02:56:00,42.805,6.029,-0.027,0.006,-0.016,104.0,108.0,101.0,13.3,1505.4,327.2,-0.7,1.9,2470.091,13.34,0.027,282.5
2019-06-29T02:59:01,42.805,6.029,0.009,0.01,-0.014,105.0,110.0,101.0,13.4,1505.4,327.6,-0.7,1.9,2470.127,13.34,0.013,42.0
2019-06-29T03:02:02,42.805,6.029,-0.034,0.013,-0.003,105.0,109.0,101.0,13.4,1505.4,328.3,-0.7,1.8,2470.14,13.34,0.036,290.9
2019-06-29T03:05:03,42.805,6.029,-0.027,0.011,-0.028,105.0,109.0,102.0,13.4,1505.3,324.6,-0.8,1.9,2470.137,13.33,0.029,292.2
2019-06-29T03:08:04,42.805,6.029,-0.029,0.004,-0.033,106.0,110.0,101.0,13.4,1505.3,327.8,-0.7,1.9,2470.103,13.33,0.029,277.8
2019-06-29T03:11:05,42.805,6.029,-0.034,0.014,-0.006,106.0,108.0,102.0,13.4,1505.4,327.6,-0.7,1.8,2470.131,13.34,0.036,292.4
2019-06-29T03:14:06,42.805,6.029,-0.021,-0.007,-0.064,104.0,109.0,101.0,13.3,1505.3,328.2,-0.7,1.8,2470.089,13.33,0.022,251.6
2019-06-29T03:17:07,42.805,6.029,-0.037,0.008,-0.035,104.0,107.0,100.0,13.4,1505.4,325.2,-0.7,1.8,2470.132,13.34,0.037,282.2
2019-06-29T03:20:08,42.805,6.029,-0.045,0.023,-0.021,105.0,108.0,100.0,13.3,1505.3,328.0,-0.8,1.8,2470.127,13.33,0.05,297.1
2019-06-29T03:23:09,42.805,6.029,-0.036,0.012,-0.007,105.0,107.0,101.0,13.4,1505.3,323.9,-0.7,1.8,2470.139,13.33,0.037,288.4
2019-06-29T03:26:10,42.805,6.029,-0.043,0.005,-0.03,104.0,108.0,102.0,13.3,1505.3,327.1,-0.7,1.8,2470.132,13.33,0.043,276.6
2019-06-29T03:29:11,42.805,6.029,-0.046,0.03,0.0,105.0,109.0,100.0,13.4,1505.3,325.6,-0.7,1.9,2470.132,13.33,0.054,303.1
2019-06-29T03:32:12,42.805,6.029,0.014,-0.002,-0.006,106.0,108.0,101.0,13.4,1505.3,328.2,-0.7,1.8,2470.17,13.33,0.014,98.1
2019-06-29T03:35:13,42.805,6.029,-0.019,0.017,-0.017,105.0,107.0,102.0,13.3,1505.3,322.9,-0.7,1.8,2470.082,13.33,0.025,311.8
2019-06-29T03:38:14,42.805,6.029,-0.026,-0.002,0.001,106.0,107.0,104.0,13.3,1505.3,323.1,-0.8,1.8,2470.109,13.33,0.026,265.6
2019-06-29T03:41:15,42.805,6.029,-0.041,0.003,-0.013,104.0,108.0,99.0,13.4,1505.3,325.8,-0.7,1.9,2470.145,13.33,0.041,274.2
2019-06-29T03:44:16,42.805,6.029,-0.054,0.008,-0.033,105.0,107.0,100.0,13.4,1505.3,326.5,-0.8,1.8,2470.086,13.33,0.054,278.4
2019-06-29T03:47:17,42.805,6.029,-0.001,0.017,0.01,104.0,108.0,101.0,13.3,1505.3,326.7,-0.7,1.8,2470.118,13.33,0.017,356.6
2019-06-29T03:50:18,42.805,6.029,-0.055,0.014,-0.081,103.0,108.0,100.0,13.4,1505.3,326.6,-0.7,1.8,2470.112,13.33,0.056,284.3
2019-06-29T03:53:19,42.805,6.029,-0.046,0.005,-0.054,103.0,108.0,99.0,13.4,1505.3,326.7,-0.7,1.8,2470.141,13.33,0.046,276.2
2019-06-29T03:56:20,42.805,6.029,-0.022,0.01,-0.011,104.0,108.0,100.0,13.3,1505.4,324.9,-0.7,1.8,2470.152,13.34,0.024,294.4
2019-06-29T03:59:21,42.805,6.029,-0.039,0.016,-0.023,103.0,108.0,101.0,13.4,1505.3,325.1,-0.7,1.9,2470.12,13.33,0.042,292.3
2019-06-29T04:02:22,42.805,6.029,-0.001,-0.004,-0.019,104.0,108.0,100.0,13.4,1505.3,325.0,-0.7,1.9,2470.095,13.33,0.004,194.0
2019-06-29T04:05:23,42.805,6.029,-0.023,-0.014,-0.033,107.0,109.0,101.0,13.4,1505.3,327.5,-0.7,1.8,2470.145,13.33,0.026,238.7
2019-06-29T04:08:24,42.805,6.029,-0.009,0.019,-0.016,104.0,109.0,101.0,13.4,1505.3,327.3,-0.7,1.9,2470.113,13.33,0.021,334.7
2019-06-29T04:11:25,42.805,6.029,-0.054,-0.003,-0.029,106.0,109.0,100.0,13.4,1505.3,327.7,-0.8,1.9,2470.088,13.33,0.054,266.8
2019-06-29T04:14:26,42.805,6.029,-0.041,-0.013,-0.025,105.0,108.0,102.0,13.4,1505.4,326.8,-0.8,1.8,2470.115,13.34,0.043,252.4
2019-06-29T04:17:27,42.805,6.029,-0.031,0.009,-0.005,108.0,109.0,103.0,13.4,1505.4,323.8,-0.8,1.8,2470.099,13.34,0.032,286.2
2019-06-29T04:20:28,42.805,6.029,-0.028,0.007,-0.008,106.0,109.0,101.0,13.4,1505.4,323.8,-0.7,1.8,2470.108,13.34,0.028,284.0
2019-06-29T04:23:29,42.805,6.029,-0.009,0.015,-0.018,105.0,109.0,101.0,13.3,1505.3,327.4,-0.7,1.8,2470.097,13.33,0.017,329.0
2019-06-29T04:26:30,42.805,6.029,-0.023,0.017,0.016,105.0,110.0,104.0,13.4,1505.3,327.6,-0.7,1.9,2470.092,13.33,0.028,306.5
2019-06-29T04:29:31,42.805,6.029,-0.015,-0.012,-0.002,105.0,110.0,101.0,13.3,1505.3,324.9,-0.7,1.8,2470.116,13.33,0.019,231.3
2019-06-29T04:32:32,42.805,6.029,-0.027,0.028,-0.009,104.0,108.0,100.0,13.4,1505.4,327.6,-0.7,1.8,2470.1,13.34,0.038,316.0
2019-06-29T04:35:33,42.805,6.029,-0.013,-0.006,-0.021,105.0,108.0,100.0,13.4,1505.4,328.0,-0.7,1.8,2470.1,13.34,0.014,245.2
2019-06-29T04:38:34,42.805,6.029,-0.011,0.009,0.001,105.0,109.0,100.0,13.4,1505.4,327.5,-0.7,1.8,2470.172,13.34,0.014,309.3
2019-06-29T04:41:35,42.805,6.029,-0.039,0.017,-0.028,105.0,107.0,100.0,13.4,1505.4,323.8,-0.7,1.8,2470.136,13.34,0.042,293.5
2019-06-29T04:44:36,42.805,6.029,-0.044,0.016,-0.052,106.0,108.0,100.0,13.4,1505.4,324.9,-0.7,1.8,2470.142,13.34,0.046,290.0
2019-06-29T04:47:37,42.805,6.029,-0.034,-0.011,0.0,106.0,107.0,100.0,13.4,1505.4,327.1,-0.7,1.8,2470.072,13.34,0.035,252.1
2019-06-29T04:50:38,42.805,6.029,-0.045,-0.003,-0.003,105.0,107.0,101.0,13.3,1505.4,324.9,-0.7,1.8,2470.113,13.34,0.045,266.2
2019-06-29T04:53:39,42.805,6.029,-0.011,0.017,-0.01,106.0,107.0,101.0,13.3,1505.4,324.7,-0.7,1.8,2470.12,13.34,0.02,327.1
2019-06-29T04:56:40,42.805,6.029,-0.017,-0.004,-0.018,107.0,110.0,100.0,13.4,1505.4,324.9,-0.7,1.9,2470.128,13.34,0.017,256.8
2019-06-29T04:59:41,42.805,6.029,-0.022,0.011,-0.006,105.0,108.0,102.0,13.4,1505.4,323.1,-0.7,1.8,2470.158,13.34,0.024,296.6
2019-06-29T05:02:42,42.805,6.029,-0.033,0.01,0.0,105.0,108.0,101.0,13.4,1505.4,323.4,-0.7,1.8,2470.136,13.34,0.034,286.9
2019-06-29T05:05:43,42.805,6.029,-0.013,0.002,-0.007,104.0,108.0,100.0,13.3,1505.4,325.6,-0.8,1.8,2470.144,13.34,0.013,278.7
2019-06-29T05:08:44,42.805,6.029,-0.02,0.019,-0.017,105.0,108.0,101.0,13.4,1505.4,326.3,-0.7,1.9,2470.164,13.34,0.027,313.5
2019-06-29T05:11:45,42.805,6.029,-0.048,0.022,-0.063,104.0,109.0,102.0,13.4,1505.4,326.1,-0.7,1.9,2470.129,13.34,0.052,294.6
2019-06-29T05:14:46,42.805,6.029,-0.022,0.025,0.003,105.0,109.0,100.0,13.4,1505.4,328.4,-0.7,1.8,2470.118,13.34,0.033,318.7
2019-06-29T05:17:47,42.805,6.029,-0.039,0.0,-0.053,105.0,111.0,102.0,13.3,1505.3,324.0,-0.8,1.8,2470.135,13.33,0.039,270.0
2019-06-29T05:20:48,42.805,6.029,-0.017,0.002,-0.008,105.0,108.0,102.0,13.4,1505.4,324.7,-0.8,1.9,2470.118,13.34,0.017,276.7
2019-06-29T05:23:49,42.805,6.029,-0.017,0.018,-0.005,105.0,108.0,100.0,13.3,1505.4,324.2,-0.7,1.8,2470.137,13.34,0.024,316.6
2019-06-29T05:26:50,42.805,6.029,-0.019,-0.015,-0.012,107.0,109.0,102.0,13.4,1505.4,325.1,-0.8,1.8,2470.156,13.34,0.024,231.7
2019-06-29T05:29:51,42.805,6.029,-0.035,0.013,-0.015,105.0,108.0,100.0,13.4,1505.4,326.0,-0.7,1.9,2470.125,13.34,0.037,290.4
2019-06-29T05:32:52,42.805,6.029,-0.018,0.016,0.007,105.0,108.0,101.0,13.3,1505.4,325.5,-0.7,1.9,2470.119,13.34,0.024,311.6
2019-06-29T05:35:53,42.805,6.029,-0.014,0.023,0.004,106.0,107.0,101.0,13.4,1505.4,324.5,-0.8,1.8,2470.1,13.34,0.026,328.7
2019-06-29T05:38:54,42.805,6.029,-0.022,0.011,0.002,105.0,107.0,101.0,13.4,1505.4,327.9,-0.7,1.9,2470.108,13.34,0.024,296.6
2019-06-29T05:41:55,42.805,6.029,-0.001,0.0,-0.003,105.0,108.0,102.0,13.4,1505.4,326.5,-0.7,1.9,2470.111,13.34,0.001,270.0
2019-06-29T05:44:56,42.805,6.029,-0.011,0.001,-0.015,107.0,109.0,100.0,13.3,1505.4,322.6,-0.7,1.9,2470.073,13.34,0.011,275.2
2019-06-29T05:47:57,42.805,6.029,-0.039,0.001,-0.024,105.0,108.0,100.0,13.3,1505.4,323.4,-0.7,1.8,2470.128,13.34,0.039,271.5
2019-06-29T05:50:58,42.805,6.029,0.001,0.0,-0.005,103.0,108.0,102.0,13.4,1505.4,323.2,-0.7,1.8,2470.104,13.34,0.001,90.0
2019-06-29T05:53:59,42.805,6.029,-0.015,0.008,-0.006,106.0,109.0,100.0,13.4,1505.3,324.1,-0.7,1.8,2470.115,13.33,0.017,298.1
2019-06-29T05:57:00,42.805,6.029,-0.02,-0.001,0.025,104.0,109.0,102.0,13.3,1505.3,326.4,-0.7,1.8,2470.126,13.33,0.02,267.1
2019-06-29T06:00:01,42.805,6.029,-0.039,0.012,-0.031,103.0,108.0,101.0,13.3,1505.4,322.8,-0.7,1.9,2470.133,13.34,0.04,287.1
2019-06-29T06:03:02,42.805,6.029,-0.003,-0.004,-0.025,105.0,107.0,101.0,13.4,1505.4,323.6,-0.7,1.8,2470.113,13.34,0.005,216.9
2019-06-29T06:06:03,42.805,6.029,-0.016,0.016,-0.008,105.0,107.0,100.0,13.4,1505.4,326.7,-0.7,1.8,2470.122,13.34,0.022,315.0
2019-06-29T06:09:04,42.805,6.029,-0.032,0.0,-0.015,105.0,108.0,102.0,13.4,1505.3,327.0,-0.8,1.8,2470.107,13.33,0.032,270.0
2019-06-29T06:12:05,42.805,6.029,-0.001,-0.01,0.006,106.0,109.0,101.0,13.4,1505.3,325.0,-0.7,1.9,2470.093,13.33,0.01,185.7
2019-06-29T06:15:06,42.805,6.029,-0.047,-0.006,0.003,105.0,108.0,102.0,13.4,1505.4,326.4,-0.7,1.9,2470.123,13.34,0.047,262.7
2019-06-29T06:18:07,42.805,6.029,-0.014,-0.003,0.0,107.0,109.0,101.0,13.3,1505.4,327.2,-0.7,1.8,2470.075,13.34,0.014,257.9
2019-06-29T06:21:08,42.805,6.029,-0.016,0.004,-0.016,106.0,108.0,101.0,13.4,1505.4,328.0,-0.7,1.8,2470.108,13.34,0.016,284.0
2019-06-29T06:24:09,42.805,6.029,-0.036,-0.013,-0.024,105.0,109.0,102.0,13.4,1505.4,327.5,-0.7,1.8,2470.101,13.34,0.038,250.1
2019-06-29T06:27:10,42.805,6.029,-0.03,-0.013,0.0,106.0,108.0,101.0,13.4,1505.3,322.8,-0.7,1.9,2470.101,13.33,0.032,246.6
2019-06-29T06:30:11,42.805,6.029,-0.049,-0.011,-0.029,104.0,107.0,100.0,13.3,1505.3,323.2,-0.7,1.8,2470.084,13.33,0.05,257.3
2019-06-29T06:33:12,42.805,6.029,-0.027,0.01,-0.039,106.0,108.0,101.0,13.3,1505.3,323.7,-0.7,1.8,2470.104,13.33,0.028,290.3
2019-06-29T06:36:13,42.805,6.029,-0.025,-0.006,-0.027,106.0,107.0,103.0,13.4,1505.3,323.8,-0.7,1.9,2470.045,13.33,0.025,256.5
2019-06-29T06:39:14,42.805,6.029,-0.092,0.001,-0.081,107.0,108.0,101.0,13.4,1505.3,328.0,-0.7,1.9,2470.087,13.33,0.092,270.6
2019-06-29T06:42:15,42.805,6.029,-0.039,0.014,-0.046,104.0,108.0,101.0,13.4,1505.3,327.9,-0.7,1.8,2470.117,13.33,0.041,289.7
2019-06-29T06:45:16,42.805,6.029,-0.044,-0.019,-0.042,105.0,108.0,102.0,13.4,1505.3,326.6,-0.7,1.8,2470.101,13.33,0.047,246.6
2019-06-29T06:48:17,42.805,6.029,-0.03,-0.002,-0.017,104.0,108.0,100.0,13.4,1505.3,325.5,-0.8,1.8,2470.078,13.33,0.03,266.2
2019-06-29T06:51:18,42.805,6.029,-0.057,0.0,-0.059,105.0,108.0,101.0,13.4,1505.3,325.6,-0.7,1.8,2470.111,13.33,0.057,270.0
2019-06-29T06:54:19,42.805,6.029,-0.055,0.005,-0.034,105.0,108.0,100.0,13.3,1505.3,327.8,-0.7,1.8,2470.085,13.33,0.055,275.2
2019-06-29T06:57:20,42.805,6.029,-0.052,-0.011,0.002,106.0,109.0,101.0,13.4,1505.3,324.8,-0.7,1.8,2470.091,13.33,0.053,258.1
2019-06-29T07:00:21,42.805,6.029,-0.023,0.018,0.003,106.0,108.0,101.0,13.3,1505.3,324.7,-0.7,1.8,2470.086,13.33,0.029,308.0
2019-06-29T07:03:22,42.805,6.029,-0.027,0.001,-0.029,107.0,109.0,102.0,13.4,1505.3,324.8,-0.7,1.9,2470.068,13.33,0.027,272.1
2019-06-29T07:06:23,42.805,6.029,-0.041,0.007,-0.039,106.0,108.0,102.0,13.4,1505.3,324.5,-0.7,1.9,2470.058,13.33,0.041,279.7
2019-06-29T07:09:24,42.805,6.029,-0.044,0.008,-0.029,106.0,107.0,103.0,13.4,1505.3,324.7,-0.7,1.9,2470.103,13.33,0.044,280.3
2019-06-29T07:12:25,42.805,6.029,-0.063,-0.004,-0.081,105.0,109.0,101.0,13.3,1505.3,324.1,-0.8,1.9,2470.112,13.33,0.063,266.4
2019-06-29T07:15:26,42.805,6.029,-0.022,0.017,-0.019,106.0,108.0,102.0,13.3,1505.3,325.4,-0.7,1.8,2470.075,13.33,0.027,307.7
2019-06-29T07:18:27,42.805,6.029,-0.058,-0.001,-0.025,106.0,108.0,101.0,13.4,1505.3,327.1,-0.7,1.8,2470.028,13.33,0.058,269.0
2019-06-29T07:21:28,42.805,6.029,-0.046,-0.001,-0.024,106.0,107.0,101.0,13.4,1505.3,322.7,-0.8,1.8,2470.053,13.33,0.046,268.8
2019-06-29T07:24:29,42.805,6.029,-0.043,-0.007,-0.035,105.0,109.0,101.0,13.3,1505.3,323.9,-0.7,1.8,2470.041,13.33,0.043,260.8
2019-06-29T07:27:30,42.805,6.029,-0.018,0.005,-0.007,105.0,107.0,102.0,13.3,1505.3,323.4,-0.7,1.9,2470.057,13.33,0.018,285.5
2019-06-29T07:30:31,42.805,6.029,-0.028,-0.027,-0.028,104.0,109.0,101.0,13.3,1505.3,324.2,-0.8,1.8,2470.014,13.33,0.038,226.0
2019-06-29T07:33:32,42.805,6.029,-0.007,0.011,0.015,104.0,107.0,102.0,13.4,1505.3,327.7,-0.7,1.8,2470.016,13.33,0.013,327.5
2019-06-29T07:36:33,42.805,6.029,-0.035,0.013,-0.053,104.0,107.0,100.0,13.4,1505.3,325.2,-0.7,1.8,2470.086,13.33,0.037,290.4
2019-06-29T07:39:34,42.805,6.029,-0.041,-0.012,-0.036,104.0,108.0,100.0,13.4,1505.3,325.8,-0.7,1.8,2470.079,13.33,0.042,253.7
2019-06-29T07:42:35,42.805,6.029,0.008,0.016,0.021,104.0,106.0,99.0,13.4,1505.3,323.0,-0.7,1.8,2470.069,13.33,0.017,26.6
2019-06-29T07:45:36,42.805,6.029,0.008,0.014,0.028,103.0,108.0,100.0,13.4,1505.3,326.5,-0.6,1.8,2470.06,13.33,0.016,29.7
2019-06-29T07:48:37,42.805,6.029,0.025,0.001,0.009,105.0,108.0,100.0,13.4,1505.3,324.2,-0.7,1.8,2470.019,13.33,0.025,87.7
2019-06-29T07:51:38,42.805,6.029,-0.017,0.018,-0.041,106.0,108.0,100.0,13.4,1505.3,325.4,-0.7,1.8,2470.056,13.33,0.024,316.6
2019-06-29T07:54:39,42.805,6.029,0.013,-0.008,-0.007,106.0,109.0,101.0,13.4,1505.3,325.8,-0.7,1.8,2470.074,13.33,0.015,121.6
2019-06-29T07:57:40,42.805,6.029,-0.032,0.0,0.0,104.0,109.0,101.0,13.4,1505.3,326.3,-0.7,1.8,2470.048,13.33,0.032,270.0
2019-06-29T08:00:41,42.805,6.029,-0.014,0.014,-0.027,105.0,109.0,102.0,13.4,1505.3,328.2,-0.7,1.8,2470.048,13.33,0.019,315.0
2019-06-29T08:03:42,42.805,6.029,0.0,0.003,-0.015,106.0,110.0,100.0,13.4,1505.3,323.2,-0.7,1.8,2470.028,13.33,0.003,0.0
2019-06-29T08:06:43,42.805,6.029,-0.039,0.008,-0.043,105.0,108.0,100.0,13.3,1505.3,324.5,-0.7,1.8,2470.029,13.33,0.039,281.6
2019-06-29T08:09:44,42.805,6.029,-0.013,-0.006,0.008,106.0,111.0,100.0,13.4,1505.3,323.2,-0.7,1.9,2470.038,13.33,0.014,245.2
2019-06-29T08:12:45,42.805,6.029,-0.035,0.013,0.01,104.0,110.0,102.0,13.3,1505.3,327.0,-0.7,1.9,2470.028,13.33,0.037,290.4
2019-06-29T08:15:46,42.805,6.029,-0.028,0.004,-0.008,104.0,107.0,100.0,13.4,1505.3,327.0,-0.8,1.9,2470.022,13.33,0.028,278.1
2019-06-29T08:18:47,42.805,6.029,-0.004,-0.003,0.007,105.0,111.0,102.0,13.4,1505.3,324.2,-0.7,1.9,2470.036,13.33,0.005,233.1
2019-06-29T08:21:48,42.805,6.029,0.014,0.023,-0.005,105.0,109.0,102.0,13.4,1505.3,327.4,-0.7,1.8,2470.06,13.33,0.026,31.3
2019-06-29T08:24:49,42.805,6.029,-0.016,0.003,0.003,106.0,109.0,103.0,13.4,1505.3,326.9,-0.7,1.8,2470.057,13.33,0.016,280.6
2019-06-29T08:27:50,42.805,6.029,0.004,0.001,0.021,105.0,109.0,102.0,13.4,1505.3,326.3,-0.7,1.8,2470.021,13.33,0.004,76.0
2019-06-29T08:30:51,42.805,6.029,-0.032,0.017,-0.018,106.0,108.0,105.0,13.4,1505.3,322.8,-0.8,1.8,2470.027,13.33,0.036,298.0
2019-06-29T08:33:52,42.805,6.029,-0.021,0.007,-0.007,105.0,108.0,102.0,13.3,1505.3,325.4,-0.7,1.8,2470.001,13.33,0.022,288.4
2019-06-29T08:36:53,42.805,6.029,-0.019,0.001,0.017,108.0,108.0,101.0,13.4,1505.3,325.8,-0.7,1.8,2470.015,13.33,0.019,273.0
2019-06-29T08:39:54,42.805,6.029,-0.025,0.003,0.003,106.0,109.0,101.0,13.4,1505.3,324.6,-0.8,1.9,2470.037,13.33,0.025,276.8
2019-06-29T08:42:55,42.805,6.029,-0.015,-0.011,0.009,106.0,110.0,101.0,13.4,1505.3,326.7,-0.7,1.8,2470.016,13.33,0.018,233.7
2019-06-29T08:45:56,42.805,6.029,-0.045,-0.015,0.005,107.0,108.0,101.0,13.3,1505.3,326.6,-0.8,1.8,2469.994,13.33,0.047,251.6
2019-06-29T08:48:57,42.805,6.029,-0.013,0.006,-0.021,106.0,109.0,102.0,13.4,1505.3,324.2,-0.7,1.8,2470.013,13.33,0.014,294.8
2019-06-29T08:51:58,42.805,6.029,-0.01,0.008,0.016,107.0,108.0,101.0,13.4,1505.3,326.4,-0.7,1.8,2470.022,13.33,0.012,308.7
2019-06-29T08:54:59,42.805,6.029,-0.017,0.021,-0.004,107.0,110.0,101.0,13.4,1505.3,324.4,-0.8,1.8,2469.997,13.33,0.027,321.0
2019-06-29T08:58:00,42.805,6.029,0.005,0.006,-0.009,106.0,109.0,103.0,13.4,1505.3,324.8,-0.7,1.8,2470.001,13.33,0.007,39.8
2019-06-29T09:01:01,42.805,6.029,0.006,0.01,0.008,104.0,110.0,102.0,13.4,1505.3,326.4,-0.7,1.8,2470.031,13.33,0.011,31.0
2019-06-29T09:04:02,42.805,6.029,-0.04,-0.004,0.006,105.0,108.0,102.0,13.3,1505.3,323.5,-0.7,1.8,2470.023,13.33,0.04,264.3
2019-06-29T09:07:03,42.805,6.029,-0.022,0.003,-0.03,106.0,107.0,101.0,13.4,1505.3,326.1,-0.7,1.8,2470.006,13.33,0.022,277.8
2019-06-29T09:10:04,42.805,6.029,-0.05,0.005,-0.044,104.0,109.0,101.0,13.3,1505.3,324.7,-0.7,1.8,2470.041,13.33,0.05,275.7
2019-06-29T09:13:05,42.805,6.029,-0.035,0.0,-0.047,105.0,110.0,102.0,13.3,1505.3,326.6,-0.7,1.9,2470.028,13.33,0.035,270.0
2019-06-29T09:16:06,42.805,6.029,-0.017,0.019,0.02,105.0,109.0,101.0,13.4,1505.3,325.7,-0.7,1.8,2470.027,13.33,0.025,318.2
2019-06-29T09:19:07,42.805,6.029,-0.055,-0.008,-0.057,105.0,109.0,100.0,13.4,1505.3,325.8,-0.7,1.8,2470.048,13.33,0.055,261.7
2019-06-29T09:22:08,42.805,6.029,-0.03,-0.002,-0.004,106.0,109.0,101.0,13.4,1505.3,327.8,-0.7,1.9,2470.0,13.33,0.03,266.2
2019-06-29T09:25:09,42.805,6.029,-0.022,0.014,-0.033,107.0,108.0,100.0,13.4,1505.3,326.0,-0.7,1.8,2470.007,13.33,0.026,302.5
2019-06-29T09:28:10,42.805,6.029,-0.053,0.02,-0.037,105.0,109.0,104.0,13.4,1505.3,324.4,-0.7,1.8,2470.009,13.33,0.056,290.7
2019-06-29T09:31:11,42.805,6.029,-0.048,0.014,-0.014,106.0,106.0,101.0,13.3,1505.3,327.4,-0.7,1.8,2470.003,13.33,0.05,286.3